www.pogodaiklimat.ru

Погода и климат >> Архив погоды >> Антарктида >> Rothera


ПОГОДА в Rothera

  • Прогноз погоды в Rothera
  • Монитор погоды в Rothera
  • Климат города

АРХИВ ПОГОДЫ в Rothera

Время (UTC), дата Ветер
(напр.,м/с)
 
Видим.   Явления Облачность Т
(С)
Тd
(С)
f
(%)
Тe
(С)
Тes
(С)
Комфортность P
(гПа)
Po
(гПа)
Тmin
(С)
Tmax
(С)
R
(мм)
R24
(мм)
S
(см)
12 18.06 СВ 3 н/о 9/5 600 м
[Sc]
-5.0 -9.0 73 -10 -10 984.7 980.5 -5.0 -3.2
14 18.06 В 3 н/о н/о -4.8 -9.6 69 -10 -10 984.3 980.1
13 18.06 З 2 н/о н/о -5.5 -8.0 83 -9 -9 984.6 980.4
15 18.06 З 2 20 км 9/9 600 м
[Sc]
-5.6 -8.4 81 -10 -10 983.7 979.5
16 18.06 В 7 н/о н/о -4.8 -10.5 64 -13 -13 983.2 979.0
17 18.06 В 6 н/о н/о -5.0 -11.1 62 -12 -12 982.8 978.6
18 18.06 В 3 50 км 8/4 900 м
[Sc Ac trans]
-5.2 -11.1 63 -10 -10 982.4 978.2
20 18.06 В 12 н/о н/о -5.9 -12.6 59 -16 -16 980.7 976.5
19 18.06 В 9 н/о н/о -5.5 -11.8 61 -15 -15 981.6 977.4
21 18.06 В 12 н/о 9/3 1200 м
[Sc Ac trans]
-6.1 -12.4 61 -16 -16 979.8 975.6
22 18.06 В 15 н/о н/о -6.2 -12.9 59 -17 -17 978.6 974.4
23 18.06 В 14 н/о н/о -6.5 -13.8 56 -18 -18 978.0 973.8
00 19.06 В 14 н/о 5/0
[Ac trans]
-6.6 -12.6 62 -18 -18 977.1 972.9 -6.6 -4.8
02 19.06 В 14 н/о н/о -7.0 -13.2 61 -18 -18 975.9 971.6
01 19.06 В 15 н/о н/о -6.9 -13.3 60 -18 -18 976.5 972.3
03 19.06 В 11 н/о н/о -6.9 -13.5 59 -17 -17 975.3 971.1
04 19.06 В 12 н/о н/о -6.7 -13.7 57 -17 -17 974.1 969.9
05 19.06 В 12 н/о н/о -6.7 -13.7 57 -17 -17 973.6 969.4
06 19.06 штиль 0 500 м 4/4 <50 м
[]
-6.9 -14.0 57 -7 -7 973.6 969.5
08 19.06 В 12 н/о н/о -6.9 -13.8 58 -17 -17 972.5 968.3
07 19.06 В 13 н/о н/о -6.9 -14.3 56 -18 -18 973.0 968.8
09 19.06 В 10 н/о н/о -7.0 -14.0 57 -17 -17 972.4 968.2
10 19.06 В 10 н/о н/о -7.0 -14.3 56 -17 -17 972.2 968.0
11 19.06 В 11 н/о н/о -7.2 -14.0 58 -18 -18 972.0 967.7
12 19.06 В 13 н/о ясно -7.4 -13.6 61 -19 -19 971.8 967.5 -7.6 -6.6
14 19.06 В 14 н/о н/о -7.4 -13.1 64 -19 -19 972.0 967.7
13 19.06 В 14 н/о н/о -7.2 -13.4 61 -18 -18 971.7 967.4
15 19.06 В 13 50 км 5/1 1200 м
[Sc Cs]
-7.4 -13.6 61 -19 -19 971.9 967.6
16 19.06 В 12 н/о н/о -7.3 -13.7 60 -18 -18 971.8 967.5
17 19.06 В 13 н/о н/о -7.3 -14.3 57 -18 -18 971.9 967.6
18 19.06 В 14 50 км 5/0
[As trans Cs]
-7.4 -13.8 60 -19 -19 971.9 967.6
20 19.06 В 10 н/о н/о -7.2 -13.7 60 -17 -17 972.7 968.4
19 19.06 В 11 н/о н/о -7.2 -13.5 61 -17 -17 972.4 968.1
21 19.06 В 11 н/о 4/0
[As trans]
-7.1 -13.3 61 -17 -17 972.6 968.3
22 19.06 В 12 н/о н/о -7.0 -12.9 63 -17 -17 972.8 968.5
23 19.06 В 9 н/о н/о -6.9 -13.0 62 -16 -16 973.2 969.0
00 20.06 В 6 н/о 6/1 1200 м
[Sc As trans]
-7.3 -12.8 65 -15 -15 973.6 969.3 -7.5 -6.9
02 20.06 В 1 н/о н/о -6.7 -13.2 60 -7 -7 973.9 969.7
01 20.06 В 7 н/о н/о -6.7 -13.1 60 -15 -15 973.6 969.4
03 20.06 В 5 н/о н/о -6.5 -13.0 60 -14 -14 973.8 969.6
15 20.06 В 4 50 км {снег} 8/4 600 м
[Sc As trans]
-7.1 -11.1 73 -14 -14 976.6 972.3
16 20.06 З 5 н/о н/о -8.0 -10.4 83 -16 -16 976.7 972.4
17 20.06 З 4 н/о н/о -8.2 -10.4 84 -15 -15 977.3 973.0
18 20.06 З 3 20 км 6/3 1050 м
[Sc As trans]
-8.0 -10.6 82 -13 -13 977.7 973.4
20 20.06 З 2 н/о н/о -7.9 -11.2 77 -12 -12 978.5 974.2
19 20.06 З 3 н/о н/о -7.9 -11.0 78 -13 -13 978.1 973.8
21 20.06 В 7 20 км 3/0
[As trans]
-7.4 -12.5 67 -16 -16 978.5 974.2
22 20.06 В 3 н/о н/о -7.3 -12.4 67 -13 -13 978.8 974.5
23 20.06 В 6 н/о н/о -7.3 -13.1 63 -15 -15 979.0 974.7
00 21.06 В 8 н/о 6/0
[Ac trans]
-7.4 -13.1 64 -16 -16 979.2 974.9 -8.4 -7.1
02 21.06 В 10 н/о н/о -7.4 -13.9 60 -17 -17 979.7 975.4
01 21.06 В 12 н/о н/о -7.6 -13.4 63 -18 -18 979.3 975.0
03 21.06 В 6 н/о н/о -7.8 -12.9 67 -16 -16 980.3 976.0
04 21.06 В 4 н/о н/о -8.3 -13.9 64 -15 -15 980.8 976.5
05 21.06 СВ 3 н/о н/о -8.9 -13.4 70 -14 -14 981.3 977.0
06 21.06 С 2 н/о н/о -8.7 -13.2 70 -12 -12 981.8 977.5
08 21.06 Ю 2 н/о н/о -8.5 -14.4 62 -12 -12 983.3 979.0
07 21.06 З 1 н/о н/о -8.5 -13.9 65 -11 -11 982.6 978.3
09 21.06 В 12 н/о н/о -7.9 -14.4 60 -19 -19 983.4 979.1
10 21.06 В 12 н/о н/о -7.9 -14.8 58 -19 -19 983.7 979.4
11 21.06 В 11 н/о н/о -8.0 -14.6 59 -18 -18 984.3 980.0
12 21.06 В 14 н/о ясно -8.3 -14.7 60 -20 -20 984.9 980.6 -9.3 -7.4
14 21.06 В 11 н/о н/о -8.1 -14.3 61 -19 -19 986.6 982.3
13 21.06 В 14 н/о н/о -8.3 -14.5 61 -20 -20 985.5 981.2
15 21.06 В 11 50 км 9/0
[Ac trans]
-8.3 -14.3 62 -19 -19 987.4 983.1
16 21.06 В 10 н/о н/о -7.8 -14.1 61 -18 -18 988.1 983.8
17 21.06 В 9 н/о н/о -7.7 -15.1 55 -17 -17 988.7 984.4
18 21.06 В 17 50 км 8/0
[Ac trans Cc]
-8.2 -13.7 65 -21 -21 989.0 984.7
20 21.06 В 16 н/о н/о -7.7 -13.6 63 -20 -20 990.7 986.4
19 21.06 В 14 н/о н/о -7.5 -14.1 59 -19 -19 989.8 985.5
21 21.06 В 17 н/о 8/0
[Ac trans Cc]
-7.5 -13.8 61 -20 -20 991.5 987.2
22 21.06 В 21 н/о н/о -7.8 -14.1 61 -21 -21 992.3 988.0
23 21.06 В 16 н/о н/о -7.7 -15.3 54 -20 -20 993.3 989.0
00 22.06 В 15 н/о 5/0
[Cc]
-7.7 -15.0 56 -19 -19 993.8 989.5 -8.4 -7.4
02 22.06 В 19 н/о н/о -7.4 -14.2 58 -20 -20 993.9 989.6
01 22.06 В 17 н/о н/о -7.5 -14.5 57 -20 -20 994.2 989.9
03 22.06 В 14 н/о н/о -7.2 -14.8 55 -18 -18 994.8 990.5
04 22.06 В 15 н/о н/о -7.4 -14.4 57 -19 -19 995.4 991.1
14 22.06 З 4 н/о н/о -8.7 -14.8 61 -15 -15 1000.3 996.0
15 22.06 ЮЗ 5 50 км 5/0
[Ci]
-7.6 -13.5 63 -15 -15 1000.7 996.4
17 22.06 Ю 4 н/о н/о -7.6 -14.4 58 -14 -14 1000.8 996.5
16 22.06 Ю 7 н/о н/о -7.3 -13.2 63 -16 -16 1000.8 996.5
18 22.06 З 3 50 км 4/0
[Cs]
-7.9 -14.0 62 -13 -13 1000.8 996.5
19 22.06 З 3 н/о н/о -7.9 -14.0 62 -14 -14 1000.9 996.6
20 22.06 З 3 н/о н/о -8.0 -13.3 66 -14 -14 1001.1 996.8
21 22.06 З 4 н/о 4/3 600 м
[Sc Cs]
-8.2 -11.9 75 -15 -15 1001.4 997.1
23 22.06 З 3 н/о н/о -8.8 -11.6 80 -14 -14 1001.7 997.4
22 22.06 З 3 н/о н/о -8.5 -11.5 79 -14 -14 1001.5 997.2
00 23.06 З 3 50 км 3/0
[Cs]
-8.7 -11.4 81 -14 -14 1001.8 997.5 -8.8 -7.1
01 23.06 З 3 н/о н/о -8.7 -11.2 82 -15 -15 1001.9 997.6
02 23.06 З 3 н/о н/о -8.8 -11.4 81 -15 -15 1001.6 997.3
03 23.06 З 4 н/о н/о -8.4 -10.8 83 -15 -15 1001.9 997.6
05 23.06 З 3 н/о н/о -8.4 -10.6 84 -14 -14 1001.8 997.5
04 23.06 З 4 н/о н/о -8.9 -10.8 86 -15 -15 1001.7 997.4
06 23.06 З 3 н/о н/о -8.3 -10.8 82 -14 -14 1002.0 997.7
07 23.06 З 2 н/о н/о -8.2 -10.9 81 -12 -12 1002.0 997.7
08 23.06 З 3 н/о н/о -9.0 -11.8 80 -15 -15 1002.1 997.8
09 23.06 З 3 н/о н/о -8.6 -12.2 75 -14 -14 1002.2 997.9
11 23.06 ЮЗ 3 н/о н/о -8.7 -12.8 72 -14 -14 1002.3 998.0
10 23.06 ЮЗ 3 н/о н/о -8.1 -12.7 69 -13 -13 1002.3 998.0
12 23.06 З 3 50 км ясно -8.9 -13.7 68 -14 -14 1002.5 998.2 -9.1 -7.8
13 23.06 З 2 н/о н/о -8.2 -11.7 76 -13 -13 1002.5 998.2
14 23.06 ЮЗ 2 н/о н/о -8.8 -13.3 70 -13 -13 1002.3 998.0
15 23.06 СЗ 1 50 км 4/0
[Cs]
-8.4 -14.0 64 -11 -11 1002.0 997.7
17 23.06 СВ 2 н/о н/о -8.1 -16.3 52 -12 -12 1001.6 997.3
16 23.06 З 1 н/о н/о -7.8 -15.0 56 -10 -10 1002.0 997.7
18 23.06 ЮЗ 1 50 км 10/0
[Cs]
-8.0 -14.6 59 -10 -10 1001.7 997.4
19 23.06 СЗ 1 н/о н/о -8.2 -16.1 53 -10 -10 1001.5 997.2
20 23.06 З 2 н/о н/о -8.8 -16.9 52 -13 -13 1001.6 997.3
21 23.06 ЮЗ 2 20 км ясно -9.6 -13.9 71 -14 -14 1001.4 997.1
23 23.06 З 2 н/о н/о -9.3 -16.7 55 -14 -14 1001.3 997.0
22 23.06 ЮЗ 2 н/о н/о -9.0 -13.7 69 -13 -13 1001.3 997.0
00 24.06 ЮЗ 1 20 км ясно -8.2 -17.5 47 -10 -10 1001.2 996.9 -9.7 -6.9
01 24.06 СЗ 1 н/о н/о -8.4 -17.9 46 -10 -10 1001.1 996.8
02 24.06 Ю 1 н/о н/о -7.9 -18.8 41 -10 -10 1000.9 996.6
03 24.06 ЮЗ 2 н/о н/о -9.1 -17.2 52 -12 -12 1000.9 996.6
04 24.06 ЮЗ 2 н/о н/о -7.9 -19.6 38 -11 -11 1000.4 996.1
16 24.06 З 3 н/о н/о -10.9 -16.1 65 -16 -16 1002.2 997.9
17 24.06 С 2 н/о н/о -11.4 -18.2 57 -15 -15 1002.7 998.4
18 24.06 С 1 >70 км 6/0
[Cs]
-10.9 -17.9 56 -13 -13 1003.1 998.8
19 24.06 З 1 н/о н/о -10.4 -19.0 49 -11 -11 1003.6 999.3
20 24.06 З 1 н/о н/о -10.6 -18.9 50 -11 -11 1004.0 999.7
21 24.06 ЮВ 1 н/о н/о -11.4 -15.9 69 -14 -14 1004.4 1000.1
22 24.06 С 3 н/о н/о -12.9 -19.0 60 -18 -18 1004.8 1000.5
00 25.06 В 2 н/о 4/0
[Cs]
-11.3 -19.4 51 -15 -15 1005.6 1001.3 -12.9 -9.8
02 25.06 С 3 н/о н/о -12.5 -20.2 53 -19 -19 1006.2 1001.9
03 25.06 З 1 н/о н/о -11.4 -19.8 50 -12 -12 1006.6 1002.3

 

Местоположение метеостанции Rothera (Антарктида): широта -67.56 долгота -68.13 высота над уровнем моря 16 м.

В архиве по умолчанию представлена погода в Rothera за последнюю неделю. Архивные данные за месяц целиком и за предыдущие месяцы, начиная с января 2011 года, Вы можете получить, выбрав интересующий диапазон дат из раскрывающегося списка и нажав кнопку "Ввод!".


*Определитесь, кто Вы:
робот инопланетянин человек

Внимание! Время в таблицах - всемирное. Для получения местного времени необходимо прибавить поправку, которая в Rothera равна 0 ч.

Смотрите также архив погоды в соседних городах и на ближайших метеорологических станциях:

Погода в San Martin Base (Антарктида) (74 км)
Погода в Larsen Ice Shelf (Антарктида) (289 км)
Погода в Vernadsky (Антарктида) (309 км)
Погода в Palmer Station (Антарктида) (361 км)
Погода в Fossil Bluff (Антарктида) (419 км)
Погода в Butler Island (Антарктида) (598 км)
Погода в Marambio Base (Антарктида) (636 км)
Погода в Juan Carlos Island (Антарктида) (653 км)
Погода в Bernardo o`Higgins (Антарктида) (667 км)
Погода в Captain Arturo Prat Base (Антарктида) (687 км)

Пояснения к столбцам:

Ветер - указаны скорость ветра в м/с - средняя за 10 мин, порывы в срок и между сроками (в фигурных скобках) и направление, откуда дует ветер: С - северный, СВ - северо-восточный, В - восточный, ЮВ - юго-восточный, Ю - южный, ЮЗ - юго-западный, З - западный, СЗ - северо-западный.
Видимость - горизонтальная дальность видимости в метрах или километрах. При видимости от 1 до 10 км при отсутствии осадков обычно наблюдается дымка, при ухудшении видимости до 1 км и менее - туман. В сухую погоду видимость может ухудшаться дымом, пылью или мглою.
Явления - указаны атмосферные явления, наблюдавшиеся в срок или в последний час перед сроком; фигурными скобками обозначены явления, наблюдавшиеся между сроками (за 1-3 часа до срока); квадратными скобками обозначены град или гололедные отложения с указанием их диаметра в мм.
Облачность - указаны через наклонную черту общая и нижняя облачность в баллах и высота нижней границы облаков в метрах; квадратными скобками обозначены формы облаков: Ci - перистые, Cs - перисто-слоистые, Cc - перисто-кучевые, Ac - высококучевые, As - высокослоистые, Sc - слоисто-кучевые, Ns - слоисто-дождевые, Cu - кучевые, Cb - кучево-дождевые. Подробнее классификацию облаков см. в Атласе облаков (PDF).
T - Температура воздуха - температура, измеренная на высоте 2 м над землей.
Td - Температура точки росы - температура, при понижении до которой содержащийся в воздухе водяной пар достигнет насыщения.
f - Относительная влажность воздуха - влажноcть воздуха, измеренная на высоте 2 м над землей.
Te - Эффективная температура - температура, которую ощущает одетый по сезону человек в тени. Характеристика душности погоды. При расчете учитывается влияние влажности воздуха и скорости ветра на теплоощущения человека.
Tes - Эффективная температура на солнце - температура, которую ощущает человек, с поправкой на солнечный нагрев. Характеристика знойности погоды. Зависит от высоты солнца над горизонтом, облачности и скорости ветра. Ночью, в пасмурную погоду, а также при ветре 12 м/с и более поправка равна нулю.
P - Атмосферное давление - приведенное к уровню моря атмосферное давление.
Po - Атмосферное давление - измеренное на уровне метеостанции атмосферное давление.
Tmin - Минимальная температура - минимум температуры воздуха на высоте 2 м над землей.
Tmax - Максимальная температура - максимум температуры воздуха на высоте 2 м над землей.
R - Количество осадков - Количество выпавших осадков за период времени, мм. При наведении курсора мыши на число - период времени, за который выпало указанное количество осадков.
R24 - Количество осадков - Количество выпавших осадков за 24 часа, мм.
S - Снежный покров - Высота снежного покрова, см. При наведении курсора мыши на число - состояние снежного покрова и степень покрытия местности в баллах.